| time (UTC) | temp C | wind direction | speed KPH | gust KPH | rain 1hr cm | rain 24hr cm | rain mn cm | humidity % | barometer mb |
| 20260506211932 | 7 | 343 | 0.0 | 0.0 | 0.18 | 3.02 | 3.02 | 99 | 1004.9 |
| 20260506211428 | 7 | 349 | 1.6 | 1.6 | 0.13 | 3.00 | 3.00 | 99 | 1004.8 |
| 20260506210926 | 7 | 316 | 1.6 | 1.6 | 0.13 | 3.00 | 3.00 | 99 | 1005.0 |
| 20260506210422 | 7 | 283 | 1.6 | 1.6 | 0.00 | 2.97 | 2.97 | 99 | 1004.9 |
| 20260506205919 | 7 | 334 | 0.0 | 0.0 | 0.18 | 2.97 | 2.97 | 99 | 1004.9 |
| 20260506205415 | 7 | 309 | 0.0 | 1.6 | 0.18 | 2.97 | 2.97 | 99 | 1005.1 |
| 20260506204912 | 7 | 313 | 0.0 | 1.6 | 0.30 | 2.95 | 2.95 | 99 | 1004.6 |
| 20260506204410 | 7 | 298 | 0.0 | 0.0 | 0.48 | 2.95 | 2.95 | 99 | 1004.5 |
| 20260506203907 | 7 | 100 | 1.6 | 1.6 | 0.48 | 2.92 | 2.92 | 99 | 1004.5 |
| 20260506203404 | 7 | 330 | 0.0 | 0.0 | 0.13 | 2.87 | 2.87 | 99 | 1004.7 |
| 20260506202901 | 7 | 328 | 0.0 | 1.6 | 0.18 | 2.84 | 2.84 | 99 | 1004.7 |
| 20260506202358 | 7 | 18 | 1.6 | 1.6 | 0.30 | 2.84 | 2.84 | 99 | 1004.8 |
| 20260506201854 | 7 | 338 | 0.0 | 0.0 | 0.30 | 2.82 | 2.82 | 99 | 1005.0 |
| 20260506201352 | 7 | 268 | 1.6 | 1.6 | 0.30 | 2.79 | 2.79 | 99 | 1004.9 |
| 20260506200848 | 7 | 324 | 1.6 | 1.6 | 0.30 | 2.77 | 2.77 | 99 | 1004.8 |
| 20260506200344 | 8 | 131 | 1.6 | 1.6 | 0.18 | 2.74 | 2.74 | 99 | 1004.7 |
| 20260506195841 | 8 | 291 | 1.6 | 3.2 | 0.00 | 2.72 | 2.72 | 99 | 1004.7 |
| 20260506195338 | 8 | 5 | 0.0 | 0.0 | 0.00 | 2.72 | 2.72 | 99 | 1004.9 |
| 20260506194835 | 8 | 315 | 1.6 | 1.6 | 0.00 | 2.72 | 2.72 | 99 | 1004.8 |
| 20260506194331 | 8 | 340 | 0.0 | 0.0 | 0.00 | 2.72 | 2.72 | 99 | 1004.7 |
| 20260506193829 | 8 | 270 | 0.0 | 0.0 | 0.00 | 2.72 | 2.72 | 99 | 1004.8 |
| 20260506193326 | 8 | 263 | 0.0 | 1.6 | 0.00 | 2.72 | 2.72 | 99 | 1004.9 |
| 20260506192822 | 9 | 322 | 3.2 | 4.8 | 0.13 | 2.72 | 2.72 | 99 | 1004.9 |
| 20260506192319 | 9 | 338 | 0.0 | 1.6 | 0.30 | 2.72 | 2.72 | 99 | 1004.8 |
| 20260506191816 | 9 | 334 | 0.0 | 0.0 | 0.61 | 2.69 | 2.69 | 99 | 1004.8 |
| 20260506191312 | 10 | 331 | 0.0 | 0.0 | 0.79 | 2.67 | 2.67 | 99 | 1004.9 |
| 20260506190809 | 9 | 295 | 1.6 | 1.6 | 0.48 | 2.59 | 2.59 | 99 | 1004.7 |
| 20260506190306 | 10 | 6 | 3.2 | 4.8 | 0.30 | 2.54 | 2.54 | 99 | 1004.6 |
| 20260506185803 | 11 | 139 | 1.6 | 1.6 | 0.48 | 2.51 | 2.51 | 99 | 1004.4 |
| 20260506185259 | 11 | 334 | 0.0 | 0.0 | 0.71 | 2.49 | 2.49 | 99 | 1004.4 |
| 20260506184757 | 11 | 180 | 1.6 | 3.2 | 0.71 | 2.44 | 2.44 | 99 | 1004.2 |
| 20260506184254 | 12 | 324 | 1.6 | 1.6 | 0.30 | 2.36 | 2.36 | 99 | 1004.1 |
| 20260506183751 | 12 | 338 | 4.8 | 4.8 | 0.18 | 2.31 | 2.31 | 99 | 1004.1 |
| 20260506183251 | 13 | 76 | 3.2 | 3.2 | 0.18 | 2.31 | 2.31 | 99 | 1004.1 |
| 20260506182749 | 14 | 309 | 1.6 | 1.6 | 0.18 | 2.29 | 2.29 | 99 | 1004.1 |
| 20260506182246 | 15 | 301 | 0.0 | 0.0 | 0.30 | 2.29 | 2.29 | 99 | 1004.0 |
| 20260506181744 | 15 | 316 | 1.6 | 1.6 | 0.13 | 2.26 | 2.26 | 99 | 1003.9 |
| 20260506181241 | 15 | 317 | 3.2 | 3.2 | 0.18 | 2.24 | 2.24 | 99 | 1004.2 |
| 20260506180738 | 15 | 68 | 1.6 | 1.6 | 0.18 | 2.24 | 2.24 | 99 | 1004.1 |
| 20260506180234 | 15 | 327 | 0.0 | 0.0 | 0.13 | 2.21 | 2.21 | 99 | 1004.1 |
| 20260506175730 | 15 | 340 | 1.6 | 1.6 | 0.30 | 2.21 | 2.21 | 99 | 1004.2 |
| 20260506175227 | 15 | 316 | 0.0 | 0.0 | 0.30 | 2.18 | 2.18 | 99 | 1004.2 |
| 20260506174725 | 15 | 332 | 0.0 | 0.0 | 0.30 | 2.16 | 2.16 | 99 | 1004.1 |
| 20260506174221 | 15 | 315 | 0.0 | 0.0 | 0.30 | 2.13 | 2.13 | 99 | 1004.2 |
| 20260506173719 | 15 | 338 | 0.0 | 0.0 | 0.13 | 2.11 | 2.11 | 99 | 1004.3 |
| 20260506173216 | 14 | 318 | 0.0 | 0.0 | 0.30 | 2.11 | 2.11 | 99 | 1004.3 |
| 20260506172713 | 14 | 332 | 0.0 | 0.0 | 0.30 | 2.08 | 2.08 | 99 | 1004.3 |
| 20260506172209 | 14 | 338 | 0.0 | 0.0 | 0.43 | 2.06 | 2.06 | 99 | 1004.3 |
| 20260506171707 | 14 | 336 | 0.0 | 0.0 | 0.66 | 2.03 | 2.03 | 99 | 1004.4 |
| 20260506171204 | 14 | 349 | 0.0 | 0.0 | 0.48 | 1.98 | 1.98 | 99 | 1004.4 |
| 20260506170702 | 14 | 342 | 0.0 | 0.0 | 0.61 | 1.96 | 1.96 | 99 | 1004.6 |
| 20260506170158 | 14 | 343 | 0.0 | 0.0 | 0.61 | 1.91 | 1.91 | 99 | 1004.7 |
| 20260506165657 | 14 | 342 | 0.0 | 0.0 | 0.48 | 1.85 | 1.85 | 99 | 1004.7 |
| 20260506165153 | 14 | 346 | 0.0 | 0.0 | 0.43 | 1.83 | 1.83 | 99 | 1004.7 |
| 20260506164650 | 13 | 341 | 0.0 | 0.0 | 0.43 | 1.78 | 1.78 | 99 | 1005.2 |
| 20260506164148 | 13 | 340 | 0.0 | 0.0 | 0.30 | 1.73 | 1.73 | 99 | 1005.1 |
| 20260506163644 | 13 | 345 | 0.0 | 0.0 | 0.48 | 1.70 | 1.70 | 99 | 1004.9 |
| 20260506163139 | 14 | 336 | 0.0 | 0.0 | 0.61 | 1.68 | 1.68 | 99 | 1004.9 |
| 20260506162635 | 13 | 339 | 0.0 | 0.0 | 0.61 | 1.63 | 1.63 | 99 | 1005.1 |
| 20260506162133 | 13 | 334 | 0.0 | 0.0 | 0.61 | 1.57 | 1.57 | 99 | 1005.2 |
| 20260506161630 | 13 | 320 | 0.0 | 1.6 | 0.61 | 1.52 | 1.52 | 99 | 1005.3 |
| 20260506161127 | 13 | 311 | 0.0 | 0.0 | 0.43 | 1.45 | 1.45 | 99 | 1005.4 |
| 20260506160625 | 13 | 319 | 0.0 | 0.0 | 0.30 | 1.40 | 1.40 | 99 | 1005.5 |
| 20260506160121 | 13 | 315 | 0.0 | 1.6 | 0.30 | 1.37 | 1.37 | 99 | 1005.4 |
| 20260506155620 | 13 | 318 | 0.0 | 0.0 | 0.48 | 1.35 | 1.35 | 99 | 1005.5 |
| 20260506155116 | 14 | 344 | 0.0 | 0.0 | 0.30 | 1.22 | 1.22 | 99 | 1005.8 |
| 20260506153219 | 13 | 343 | 0.0 | 0.0 | 0.48 | 1.19 | 1.19 | 99 | 1005.7 |
| 20260506152715 | 13 | 345 | 0.0 | 0.0 | 0.43 | 1.17 | 1.17 | 99 | 1005.6 |
| 20260506152213 | 13 | 335 | 0.0 | 0.0 | 0.48 | 1.14 | 1.14 | 99 | 1005.6 |
| 20260506151712 | 13 | 342 | 0.0 | 0.0 | 0.48 | 1.09 | 1.09 | 99 | 1005.8 |
| 20260506151208 | 13 | 343 | 0.0 | 0.0 | 0.48 | 1.07 | 1.07 | 99 | 1005.9 |
| 20260506150704 | 13 | 343 | 0.0 | 0.0 | 0.48 | 1.02 | 1.02 | 99 | 1005.9 |
| 20260506150202 | 13 | 343 | 0.0 | 0.0 | 0.61 | 0.99 | 0.99 | 99 | 1006.0 |
| 20260506145659 | 13 | 344 | 0.0 | 0.0 | 0.61 | 0.94 | 0.94 | 99 | 1006.2 |
| 20260506145155 | 13 | 344 | 0.0 | 0.0 | 0.61 | 0.89 | 0.89 | 99 | 1006.4 |
| 20260506144653 | 13 | 340 | 0.0 | 0.0 | 0.43 | 0.84 | 0.84 | 99 | 1006.4 |
| 20260506144149 | 13 | 342 | 0.0 | 0.0 | 0.48 | 0.81 | 0.81 | 99 | 1006.3 |
| 20260506143647 | 13 | 323 | 0.0 | 0.0 | 0.30 | 0.74 | 0.74 | 99 | 1006.5 |
| 20260506143145 | 13 | 323 | 0.0 | 0.0 | 0.36 | 0.71 | 0.71 | 99 | 1006.7 |
| 20260506142643 | 13 | 321 | 0.0 | 0.0 | 0.30 | 0.69 | 0.69 | 99 | 1006.9 |
| 20260506142140 | 13 | 317 | 0.0 | 0.0 | 0.43 | 0.66 | 0.66 | 99 | 1006.9 |
| 20260506141638 | 13 | 318 | 0.0 | 0.0 | 0.48 | 0.64 | 0.64 | 99 | 1006.8 |
| 20260506141136 | 13 | 316 | 0.0 | 0.0 | 0.61 | 0.61 | 0.61 | 99 | 1006.7 |
| 20260506140633 | 13 | 315 | 0.0 | 0.0 | 0.43 | 0.56 | 0.56 | 99 | 1006.6 |
| 20260506140130 | 13 | 336 | 0.0 | 0.0 | 0.30 | 0.51 | 0.51 | 99 | 1006.2 |
| 20260506135627 | 13 | 337 | 0.0 | 0.0 | 0.30 | 0.48 | 0.48 | 99 | 1006.3 |
| 20260506135123 | 13 | 323 | 0.0 | 0.0 | 0.30 | 0.46 | 0.46 | 99 | 1006.4 |
| 20260506134620 | 13 | 337 | 0.0 | 0.0 | 0.30 | 0.43 | 0.43 | 99 | 1006.5 |
| 20260506134116 | 13 | 280 | 0.0 | 1.6 | 0.30 | 0.41 | 0.41 | 99 | 1006.4 |
| 20260506133614 | 13 | 345 | 0.0 | 0.0 | 0.36 | 0.38 | 0.38 | 99 | 1006.1 |
| 20260506133110 | 13 | 292 | 0.0 | 0.0 | 0.30 | 0.36 | 0.36 | 99 | 1006.5 |
| 20260506132608 | 13 | 317 | 0.0 | 0.0 | 0.30 | 0.33 | 0.33 | 99 | 1006.3 |
| 20260506132105 | 13 | 278 | 0.0 | 0.0 | 0.48 | 0.30 | 0.30 | 99 | 1006.2 |
| 20260506131602 | 13 | 309 | 0.0 | 0.0 | 0.30 | 0.28 | 0.28 | 99 | 1006.3 |
| 20260506131058 | 13 | 308 | 0.0 | 0.0 | 0.30 | 0.25 | 0.25 | 99 | 1006.4 |
| 20260506130555 | 13 | 356 | 0.0 | 0.0 | 0.30 | 0.23 | 0.23 | 99 | 1006.4 |
| 20260506130053 | 13 | 317 | 0.0 | 0.0 | 0.30 | 0.20 | 0.20 | 99 | 1006.8 |
| 20260506125551 | 13 | 319 | 0.0 | 0.0 | 0.30 | 0.18 | 0.18 | 99 | 1006.7 |
| 20260506125048 | 13 | 323 | 0.0 | 0.0 | 0.18 | 0.15 | 0.15 | 99 | 1006.8 |
| 20260506124546 | 13 | 315 | 0.0 | 0.0 | 0.13 | 0.13 | 0.13 | 99 | 1006.6 |
| 20260506124044 | 13 | 2 | 0.0 | 1.6 | 0.13 | 0.13 | 0.13 | 99 | 1006.7 |
| 20260506123541 | 13 | 349 | 0.0 | 0.0 | 0.18 | 0.10 | 0.10 | 99 | 1007.0 |
| 20260506123039 | 13 | 342 | 0.0 | 0.0 | 0.18 | 0.10 | 0.10 | 99 | 1007.2 |
| 20260506122535 | 13 | 317 | 0.0 | 0.0 | 0.00 | 0.08 | 0.08 | 99 | 1007.1 |
| 20260506122034 | 12 | 313 | 0.0 | 0.0 | 0.00 | 0.08 | 0.08 | 99 | 1007.2 |
| 20260506121531 | 12 | 328 | 0.0 | 0.0 | 0.00 | 0.08 | 0.08 | 99 | 1007.3 |
| 20260506121027 | 12 | 326 | 0.0 | 0.0 | 0.13 | 0.08 | 0.08 | 99 | 1007.0 |
| 20260506120525 | 12 | 334 | 0.0 | 0.0 | 0.13 | 0.08 | 0.08 | 99 | 1006.8 |
| 20260506120022 | 12 | 349 | 0.0 | 0.0 | 0.00 | 0.05 | 0.05 | 99 | 1006.8 |
| 20260506115520 | 12 | 303 | 0.0 | 0.0 | 0.00 | 0.05 | 0.05 | 99 | 1006.6 |
| 20260506115018 | 12 | 318 | 0.0 | 0.0 | 0.00 | 0.05 | 0.05 | 99 | 1006.6 |
| 20260506114515 | 12 | 265 | 3.2 | 3.2 | 0.00 | 0.05 | 0.05 | 99 | 1006.5 |
| 20260506114014 | 12 | 35 | 1.6 | 1.6 | 0.00 | 0.05 | 0.05 | 99 | 1006.2 |
| 20260506113511 | 12 | 354 | 1.6 | 1.6 | 0.00 | 0.05 | 0.05 | 99 | 1006.7 |
| 20260506113008 | 12 | 355 | 0.0 | 0.0 | 0.00 | 0.05 | 0.05 | 99 | 1006.6 |
| 20260506112505 | 12 | 356 | 0.0 | 0.0 | 0.00 | 0.05 | 0.05 | 99 | 1006.5 |
| 20260506112002 | 12 | 352 | 0.0 | 0.0 | 0.00 | 0.05 | 0.05 | 99 | 1006.7 |
| 20260506111500 | 12 | 352 | 0.0 | 0.0 | 0.00 | 0.05 | 0.05 | 99 | 1006.8 |
| 20260506110957 | 12 | 351 | 0.0 | 0.0 | 0.00 | 0.05 | 0.05 | 99 | 1006.7 |
| 20260506110455 | 12 | 352 | 0.0 | 0.0 | 0.00 | 0.05 | 0.05 | 99 | 1006.3 |
| 20260506105951 | 12 | 352 | 0.0 | 0.0 | 0.00 | 0.05 | 0.05 | 99 | 1006.3 |
| 20260506105447 | 12 | 352 | 0.0 | 0.0 | 0.00 | 0.05 | 0.05 | 99 | 1006.4 |
| 20260506104945 | 12 | 350 | 0.0 | 0.0 | 0.00 | 0.05 | 0.05 | 99 | 1006.5 |
| 20260506104443 | 12 | 350 | 0.0 | 0.0 | 0.00 | 0.05 | 0.05 | 99 | 1006.6 |
| 20260506103941 | 12 | 350 | 0.0 | 0.0 | 0.00 | 0.05 | 0.05 | 99 | 1006.2 |
| 20260506103438 | 12 | 350 | 0.0 | 0.0 | 0.00 | 0.05 | 0.05 | 99 | 1006.4 |
| 20260506102935 | 12 | 351 | 0.0 | 0.0 | 0.00 | 0.05 | 0.05 | 99 | 1006.3 |
| 20260506102433 | 12 | 351 | 0.0 | 0.0 | 0.00 | 0.05 | 0.05 | 99 | 1006.4 |
| 20260506101930 | 12 | 352 | 0.0 | 0.0 | 0.00 | 0.05 | 0.05 | 99 | 1005.9 |
| 20260506101426 | 12 | 351 | 0.0 | 0.0 | 0.00 | 0.05 | 0.05 | 99 | 1006.2 |
| 20260506100924 | 12 | 351 | 0.0 | 0.0 | 0.00 | 0.05 | 0.05 | 99 | 1006.0 |
| 20260506100422 | 12 | 351 | 0.0 | 0.0 | 0.00 | 0.05 | 0.05 | 99 | 1006.3 |
| 20260506095920 | 12 | 351 | 0.0 | 0.0 | 0.00 | 0.05 | 0.05 | 99 | 1006.2 |
| 20260506095418 | 12 | 351 | 0.0 | 0.0 | 0.00 | 0.05 | 0.05 | 99 | 1006.5 |
| 20260506094913 | 12 | 351 | 0.0 | 0.0 | 0.00 | 0.05 | 0.05 | 99 | 1006.4 |
| 20260506094413 | 12 | 351 | 0.0 | 0.0 | 0.00 | 0.05 | 0.05 | 99 | 1006.1 |
| 20260506093910 | 12 | 351 | 0.0 | 0.0 | 0.00 | 0.05 | 0.05 | 99 | 1005.9 |
| 20260506093407 | 12 | 351 | 0.0 | 0.0 | 0.00 | 0.05 | 0.05 | 99 | 1006.2 |
| 20260506092905 | 12 | 351 | 0.0 | 0.0 | 0.00 | 0.05 | 0.05 | 99 | 1006.0 |
| 20260506092403 | 12 | 351 | 0.0 | 0.0 | 0.00 | 0.05 | 0.05 | 99 | 1006.1 |
| 20260506091859 | 12 | 351 | 0.0 | 0.0 | 0.00 | 0.05 | 0.05 | 99 | 1006.3 |
| 20260506091357 | 12 | 351 | 0.0 | 0.0 | 0.00 | 0.05 | 0.05 | 99 | 1006.3 |
| 20260506090854 | 12 | 351 | 0.0 | 0.0 | 0.00 | 0.05 | 0.05 | 99 | 1006.2 |
| 20260506090352 | 12 | 351 | 0.0 | 0.0 | 0.00 | 0.05 | 0.05 | 99 | 1006.2 |
| 20260506085848 | 12 | 351 | 0.0 | 0.0 | 0.00 | 0.05 | 0.05 | 99 | 1006.1 |
| 20260506085345 | 12 | 351 | 0.0 | 0.0 | 0.00 | 0.05 | 0.05 | 99 | 1006.5 |
| 20260506084841 | 12 | 351 | 0.0 | 0.0 | 0.00 | 0.05 | 0.05 | 99 | 1006.5 |
| 20260506084338 | 12 | 351 | 0.0 | 0.0 | 0.00 | 0.05 | 0.05 | 99 | 1006.4 |
| 20260506083835 | 12 | 351 | 0.0 | 0.0 | 0.00 | 0.05 | 0.05 | 99 | 1006.5 |
| 20260506083332 | 12 | 351 | 0.0 | 0.0 | 0.00 | 0.05 | 0.05 | 99 | 1006.7 |
| 20260506082829 | 12 | 351 | 0.0 | 0.0 | 0.00 | 0.05 | 0.05 | 99 | 1006.8 |
| 20260506082326 | 12 | 351 | 0.0 | 0.0 | 0.00 | 0.05 | 0.05 | 99 | 1006.9 |
| 20260506081822 | 12 | 351 | 0.0 | 0.0 | 0.00 | 0.05 | 0.05 | 99 | 1006.6 |
| 20260506081320 | 12 | 351 | 0.0 | 0.0 | 0.00 | 0.05 | 0.05 | 99 | 1006.8 |
| 20260506080817 | 12 | 351 | 0.0 | 1.6 | 0.00 | 0.05 | 0.05 | 99 | 1006.8 |
| 20260506080314 | 12 | 352 | 0.0 | 0.0 | 0.00 | 0.05 | 0.05 | 99 | 1007.0 |
| 20260506073258 | 12 | 351 | 0.0 | 0.0 | 0.00 | 0.05 | 0.05 | 99 | 1007.0 |
| 20260506072755 | 12 | 351 | 0.0 | 0.0 | 0.00 | 0.05 | 0.05 | 99 | 1006.9 |
| 20260506072252 | 12 | 351 | 0.0 | 0.0 | 0.00 | 0.05 | 0.05 | 99 | 1006.9 |
| 20260506071750 | 12 | 351 | 0.0 | 0.0 | 0.00 | 0.05 | 0.05 | 99 | 1006.9 |
| 20260506071248 | 12 | 351 | 0.0 | 0.0 | 0.00 | 0.05 | 0.05 | 99 | 1007.0 |
| 20260506070744 | 13 | 351 | 0.0 | 0.0 | 0.00 | 0.05 | 0.05 | 99 | 1006.9 |
| 20260506070241 | 13 | 351 | 0.0 | 0.0 | 0.00 | 0.05 | 0.05 | 99 | 1007.0 |
| 20260506062218 | 13 | 351 | 0.0 | 0.0 | 0.00 | 0.05 | 0.05 | 99 | 1007.4 |
| 20260506061714 | 13 | 351 | 0.0 | 0.0 | 0.00 | 0.05 | 0.05 | 99 | 1007.2 |
| 20260506061212 | 13 | 351 | 0.0 | 0.0 | 0.00 | 0.05 | 0.05 | 99 | 1007.0 |
| 20260506060711 | 13 | 351 | 0.0 | 1.6 | 0.00 | 0.05 | 0.05 | 99 | 1007.2 |
| 20260506060207 | 13 | 351 | 1.6 | 1.6 | 0.00 | 0.05 | 0.05 | 99 | 1007.0 |
| 20260506051139 | 13 | 351 | 0.0 | 0.0 | 0.00 | 0.05 | 0.05 | 99 | 1007.5 |
| 20260506050638 | 14 | 351 | 0.0 | 0.0 | 0.00 | 0.05 | 0.05 | 99 | 1007.5 |
| 20260506050134 | 14 | 355 | 0.0 | 1.6 | 0.18 | 0.05 | 0.05 | 99 | 1007.7 |
| 20260506045127 | 13 | 321 | 0.0 | 0.0 | 0.00 | 0.03 | 0.03 | 99 | 1008.0 |
| 20260506044625 | 14 | 320 | 0.0 | 0.0 | 0.00 | 0.03 | 0.03 | 99 | 1008.3 |
| 20260506044122 | 13 | 319 | 1.6 | 1.6 | 0.00 | 0.03 | 0.03 | 99 | 1008.0 |
| 20260506043619 | 13 | 330 | 1.6 | 1.6 | 0.18 | 0.03 | 0.03 | 99 | 1007.5 |
| 20260506043117 | 13 | 336 | 0.0 | 0.0 | 0.18 | 0.03 | 0.03 | 99 | 1007.7 |
| 20260506042616 | 13 | 314 | 0.0 | 0.0 | 0.00 | 0.00 | 0.00 | 99 | 1007.8 |
| 20260506042114 | 13 | 340 | 0.0 | 0.0 | 0.00 | 0.00 | 0.00 | 99 | 1007.7 |
| 20260506041612 | 13 | 355 | 0.0 | 0.0 | 0.00 | 0.00 | 0.00 | 99 | 1007.1 |
| 20260506041108 | 13 | 341 | 0.0 | 0.0 | 0.00 | 0.00 | 0.00 | 99 | 1007.3 |
| 20260506040606 | 13 | 4 | 0.0 | 0.0 | 0.00 | 0.00 | 0.00 | 99 | 1007.2 |
| 20260506035559 | 13 | 345 | 0.0 | 1.6 | 0.00 | 0.18 | 0.18 | 99 | 1007.5 |
| 20260506035056 | 13 | 345 | 0.0 | 0.0 | 0.00 | 0.18 | 0.18 | 99 | 1007.2 |
| 20260506034553 | 14 | 345 | 0.0 | 0.0 | 0.00 | 0.18 | 0.18 | 99 | 1007.4 |
| 20260506034050 | 14 | 345 | 0.0 | 0.0 | 0.00 | 0.18 | 0.18 | 99 | 1007.4 |
| 20260506033548 | 14 | 344 | 0.0 | 0.0 | 0.00 | 0.18 | 0.18 | 99 | 1007.3 |
| 20260506033044 | 14 | 344 | 0.0 | 0.0 | 0.00 | 0.18 | 0.18 | 99 | 1007.2 |
| 20260506032542 | 14 | 345 | 0.0 | 0.0 | 0.00 | 0.18 | 0.18 | 99 | 1007.0 |
| 20260506032038 | 14 | 345 | 0.0 | 0.0 | 0.00 | 0.18 | 0.18 | 98 | 1007.1 |
| 20260506031536 | 15 | 345 | 0.0 | 0.0 | 0.00 | 0.18 | 0.18 | 97 | 1007.0 |
| 20260506031033 | 15 | 345 | 0.0 | 0.0 | 0.00 | 0.18 | 0.18 | 95 | 1006.9 |
| 20260506030531 | 15 | 346 | 1.6 | 1.6 | 0.00 | 0.18 | 0.18 | 97 | 1007.0 |
| 20260506030028 | 14 | 346 | 0.0 | 1.6 | 0.00 | 0.18 | 0.18 | 99 | 1006.8 |
| 20260506025525 | 14 | 344 | 0.0 | 0.0 | 0.00 | 0.18 | 0.18 | 99 | 1006.8 |
| 20260506025021 | 14 | 345 | 0.0 | 0.0 | 0.00 | 0.18 | 0.18 | 99 | 1006.8 |
| 20260506024518 | 14 | 345 | 0.0 | 0.0 | 0.00 | 0.18 | 0.18 | 99 | 1006.7 |
| 20260506024014 | 14 | 345 | 0.0 | 0.0 | 0.00 | 0.18 | 0.18 | 99 | 1006.9 |
| 20260506023510 | 14 | 345 | 0.0 | 0.0 | 0.00 | 0.18 | 0.18 | 99 | 1007.0 |
| 20260506023008 | 14 | 351 | 0.0 | 0.0 | 0.00 | 0.18 | 0.18 | 99 | 1006.8 |
| 20260506022506 | 14 | 351 | 0.0 | 0.0 | 0.00 | 0.18 | 0.18 | 98 | 1006.9 |
| 20260506022003 | 15 | 351 | 0.0 | 0.0 | 0.00 | 0.18 | 0.18 | 98 | 1006.9 |
| 20260506021500 | 14 | 351 | 0.0 | 1.6 | 0.00 | 0.18 | 0.18 | 98 | 1006.8 |
| 20260506020957 | 14 | 351 | 1.6 | 1.6 | 0.00 | 0.18 | 0.18 | 99 | 1006.6 |
| 20260506020455 | 14 | 351 | 0.0 | 0.0 | 0.00 | 0.18 | 0.18 | 99 | 1006.6 |
| 20260506015951 | 14 | 351 | 0.0 | 0.0 | 0.00 | 0.18 | 0.18 | 98 | 1006.6 |
| 20260506015449 | 14 | 351 | 1.6 | 1.6 | 0.00 | 0.18 | 0.18 | 98 | 1006.7 |
| 20260506014946 | 15 | 351 | 0.0 | 0.0 | 0.00 | 0.18 | 0.18 | 97 | 1006.7 |
| 20260506014443 | 15 | 351 | 0.0 | 1.6 | 0.00 | 0.18 | 0.18 | 96 | 1006.6 |
| 20260506013939 | 15 | 351 | 1.6 | 1.6 | 0.00 | 0.18 | 0.18 | 97 | 1006.6 |
| 20260506013438 | 14 | 351 | 1.6 | 1.6 | 0.00 | 0.18 | 0.18 | 98 | 1006.5 |
| 20260506012933 | 14 | 349 | 0.0 | 0.0 | 0.00 | 0.18 | 0.18 | 98 | 1006.4 |
| 20260506012430 | 14 | 349 | 0.0 | 0.0 | 0.00 | 0.18 | 0.18 | 97 | 1006.3 |
| 20260506011927 | 15 | 348 | 0.0 | 0.0 | 0.00 | 0.18 | 0.18 | 96 | 1006.5 |
| 20260506011425 | 14 | 340 | 0.0 | 0.0 | 0.00 | 0.18 | 0.18 | 96 | 1006.4 |
| 20260506010921 | 14 | 300 | 0.0 | 1.6 | 0.00 | 0.18 | 0.18 | 96 | 1006.6 |
| 20260506010420 | 15 | 310 | 0.0 | 0.0 | 0.00 | 0.18 | 0.18 | 95 | 1006.5 |
| 20260506005916 | 15 | 1 | 1.6 | 1.6 | 0.00 | 0.18 | 0.18 | 94 | 1006.3 |
| 20260506005414 | 14 | 351 | 1.6 | 1.6 | 0.00 | 0.18 | 0.18 | 93 | 1006.2 |
| 20260506004909 | 13 | 352 | 3.2 | 3.2 | 0.00 | 0.18 | 0.18 | 97 | 1006.0 |
| 20260506004407 | 14 | 324 | 0.0 | 0.0 | 0.00 | 0.18 | 0.18 | 97 | 1005.8 |
| 20260506003903 | 14 | 0 | 1.6 | 1.6 | 0.00 | 0.18 | 0.18 | 97 | 1005.8 |
| 20260506003359 | 14 | 359 | 0.0 | 0.0 | 0.00 | 0.18 | 0.18 | 94 | 1005.8 |
| 20260506002856 | 14 | 350 | 1.6 | 1.6 | 0.00 | 0.18 | 0.18 | 95 | 1005.7 |
| 20260506002352 | 15 | 315 | 1.6 | 1.6 | 0.00 | 0.18 | 0.18 | 95 | 1005.7 |
| 20260506001848 | 15 | 354 | 0.0 | 0.0 | 0.00 | 0.18 | 0.18 | 93 | 1005.5 |
| 20260506001345 | 15 | 357 | 0.0 | 1.6 | 0.00 | 0.18 | 0.18 | 94 | 1005.4 |
| 20260506000842 | 15 | 336 | 1.6 | 1.6 | 0.00 | 0.18 | 0.18 | 94 | 1005.5 |
| 20260506000340 | 15 | 336 | 1.6 | 1.6 | 0.00 | 0.18 | 0.18 | 94 | 1005.4 |
| 20260505235836 | 15 | 351 | 0.0 | 0.0 | 0.00 | 0.18 | 0.18 | 92 | 1005.3 |
| 20260505235334 | 15 | 340 | 3.2 | 3.2 | 0.00 | 0.18 | 0.18 | 92 | 1005.5 |
| 20260505234830 | 15 | 338 | 1.6 | 1.6 | 0.00 | 0.18 | 0.18 | 93 | 1005.4 |
| 20260505234329 | 15 | 325 | 0.0 | 1.6 | 0.00 | 0.18 | 0.18 | 92 | 1005.4 |
| 20260505233825 | 16 | 322 | 1.6 | 1.6 | 0.00 | 0.18 | 0.18 | 93 | 1005.3 |
| 20260505233323 | 16 | 350 | 1.6 | 3.2 | 0.00 | 0.18 | 0.18 | 93 | 1005.1 |
| 20260505232820 | 16 | 337 | 1.6 | 1.6 | 0.00 | 0.18 | 0.18 | 92 | 1005.3 |
| 20260505232318 | 16 | 337 | 1.6 | 1.6 | 0.00 | 0.18 | 0.18 | 89 | 1005.6 |
| 20260505231814 | 16 | 5 | 1.6 | 1.6 | 0.00 | 0.18 | 0.18 | 89 | 1005.3 |
| 20260505231312 | 16 | 333 | 1.6 | 1.6 | 0.00 | 0.18 | 0.18 | 88 | 1005.2 |
| 20260505230810 | 17 | 321 | 1.6 | 1.6 | 0.00 | 0.18 | 0.18 | 85 | 1005.1 |
| 20260505230307 | 17 | 350 | 0.0 | 1.6 | 0.00 | 0.18 | 0.18 | 84 | 1005.2 |
| 20260505225803 | 17 | 318 | 0.0 | 0.0 | 0.00 | 0.18 | 0.18 | 81 | 1005.2 |
| 20260505225301 | 18 | 293 | 0.0 | 1.6 | 0.00 | 0.18 | 0.18 | 74 | 1005.2 |
| 20260505224755 | 18 | 341 | 1.6 | 1.6 | 0.00 | 0.18 | 0.18 | 78 | 1005.2 |
| 20260505224253 | 17 | 94 | 3.2 | 3.2 | 0.00 | 0.18 | 0.18 | 76 | 1005.4 |
| 20260505223751 | 17 | 225 | 3.2 | 3.2 | 0.00 | 0.18 | 0.18 | 76 | 1005.5 |
| 20260505223247 | 17 | 308 | 1.6 | 1.6 | 0.00 | 0.18 | 0.18 | 86 | 1005.3 |
| 20260505222743 | 17 | 30 | 1.6 | 1.6 | 0.00 | 0.18 | 0.18 | 90 | 1005.3 |
| 20260505222240 | 17 | 342 | 0.0 | 0.0 | 0.00 | 0.18 | 0.18 | 91 | 1005.3 |
| 20260505221737 | 17 | 337 | 1.6 | 1.6 | 0.00 | 0.18 | 0.18 | 87 | 1005.4 |
| 20260505221233 | 17 | 359 | 1.6 | 1.6 | 0.00 | 0.18 | 0.18 | 90 | 1005.2 |
| 20260505220730 | 17 | 322 | 1.6 | 1.6 | 0.00 | 0.18 | 0.18 | 86 | 1005.2 |
| 20260505220228 | 17 | 338 | 1.6 | 1.6 | 0.00 | 0.18 | 0.18 | 82 | 1005.1 |
| 20260505215726 | 17 | 337 | 3.2 | 3.2 | 0.00 | 0.18 | 0.18 | 85 | 1005.1 |
| 20260505215223 | 18 | 16 | 1.6 | 1.6 | 0.00 | 0.18 | 0.18 | 86 | 1004.5 |
| 20260505214721 | 18 | 329 | 0.0 | 0.0 | 0.00 | 0.18 | 0.18 | 83 | 1004.6 |
| 20260505214218 | 18 | 343 | 0.0 | 1.6 | 0.00 | 0.18 | 0.18 | 83 | 1004.6 |
| 20260505213715 | 17 | 340 | 1.6 | 1.6 | 0.00 | 0.18 | 0.18 | 92 | 1004.7 |
| 20260505213212 | 17 | 313 | 0.0 | 0.0 | 0.00 | 0.18 | 0.18 | 98 | 1004.9 |
| 20260505212708 | 17 | 331 | 0.0 | 1.6 | 0.00 | 0.18 | 0.18 | 98 | 1004.7 |
| 20260505212206 | 17 | 331 | 0.0 | 1.6 | 0.00 | 0.18 | 0.18 | 97 | 1004.6 |